Weather in Burlington

Canada     43°18′22″N   79°47′51″W
temp.,
°C
wind,
m/s
gust,
m/s
humid.,
%
clouds,
%
prec.,
mm/h
press.,
hPa
HPBL,
m
16 may, sun
sun1623:00+11sw2276100 0.2 102314
02:00+10sw228177 0.2 102312
05:00+10wsw127549 0.0 102311
08:00+11ene1173100 0.0 102449
11:00+14ese125662 0.0 1024420
14:00+15e225386 0.0 10231107
17:00+14ese336459 0.0 1022514
20:00+13s127934 0.3 102358
17 may, mon
mon1723:00+11ssw228252 0.0 102222
02:00+11wsw33854 0.0 102342
05:00+10w22874 0.0 102425
08:00+12s11800 0.0 102478
11:00+15se12650 0.0 1025644
14:00+17sse335834 0.0 10231063
17:00+18ssw455469 0.0 1023925
20:00+16sw346519 0.0 102388
18 may, tue
tue1823:00+13sw33742 0.0 102551
02:00+12wsw33774 0.0 102440
05:00+11w33792 0.0 102541
08:00+13w23723 0.0 1027102
11:00+18wsw12585 0.0 1026511
14:00+20s22525 0.0 10251139
17:00+21s3353100 0.0 1024971
20:00+18sw466456 0.0 1024129
19 may, wed
wed1923:00+15wsw2362100 0.0 102547
02:00+14wsw2267100 0.0 102513
05:00+13wsw126767 0.0 102513
08:00+15sse116333 0.0 102664
11:00+19se225779 0.0 1026478
14:00+20sse2456100 0.0 1025831
17:00+21s2458100 0.0 1024742
20:00+18s1271100 0.0 102455
20 may, thu
thu2023:00+16ssw1179100 0.0 102534
02:00+16sw2281100 0.0 102546
05:00+15wsw2392100 0.3 102575
08:00+15sw2499100 3.3 1027103
11:00+15s3699100 4.0 1027177
14:00+16s3696100 6.9 1026246
17:00+16se2597100 0.6 1025179
20:00+16sse2696100 0.9 1024145